Location: downtown San Diego
(32.7310°N, 117.1990°W)
Time: 05:26:53
(UTC-07:00)

OAO 1 Rocket - Visible Passes

Search period start: 23 October 2019 00:00
Search period end: 02 November 2019 00:00
Orbit: 744 x 755 km, 35.0° (Epoch: 22 October)

Date Brightness Start Highest point End Pass type
(mag) Time Alt. Az. Time Alt. Az. Time Alt. Az.
28 Oct 7.0 06:35:48 10° S 06:39:17 18° SE 06:42:48 10° ESE visible
29 Oct 7.1 05:51:02 10° S 05:53:30 13° SE 05:55:58 10° ESE visible
31 Oct 6.1 06:02:11 10° SSW 06:06:51 31° SSE 06:11:31 10° E visible
01 Nov 6.4 05:17:17 12° SSW 05:21:01 24° SSE 05:25:17 10° E visible
